Index of /blog/images/assets/images.sixrevisions.com/2008/12

 NameLast modifiedSizeDescription

 Parent Directory   -  
 03-01_leading_image.jpg2018-12-20 13:02 26K 
 03-02_example_1.png 2018-12-20 13:02 2.8K 
 03-03_red-link.png 2018-12-20 13:02 3.3K 
 03-04_example_2.png 2018-12-20 13:02 8.7K 
 04-01_rosenfeld_medi..>2018-12-20 13:02 6.4K 
 09-01_eric_meyer_lea..>2018-12-20 13:02 36K 
 10-01_ajax_resource_..>2018-12-20 13:02 11K 
 10-02_mdn_ajax.jpg 2018-12-20 13:02 20K 
 10-03_ajax_today.png 2018-12-20 13:02 7.3K 
 10-04_ajax_solutoire..>2018-12-20 13:02 4.4K 
 10-05_sitepoint_js_t..>2018-12-20 13:02 6.9K 
 10-06_encosia.png 2018-12-20 13:02 10K 
 10-07_ajax_technolog..>2018-12-20 13:02 4.3K 
 10-08_ajaxblog.png 2018-12-20 13:02 7.5K 
 10-09_ajax_matters.jpg 2018-12-20 13:02 17K 
 10-10_ajaxonomy.png 2018-12-20 13:02 6.4K 
 10-11_ajaxian.png 2018-12-20 13:02 11K 
 10-12_ajaxlines.png 2018-12-20 13:02 6.5K 
 10-13_ajax_magazine.png2018-12-20 13:02 10K 
 10-14_insideria.png 2018-12-20 13:02 7.3K 
 10-15_ajax_impact.png 2018-12-20 13:02 11K 
 10-16_ajaxwith.png 2018-12-20 13:02 12K 
 10-17_david_walsh.png 2018-12-20 13:02 12K 
 10-18_ajax_projects.png2018-12-20 13:02 7.3K 
 10-19_agile_ajax.png 2018-12-20 13:02 8.4K 
 10-20_ajaxpatterns.png 2018-12-20 13:02 11K 
 13-01_ambrosia.jpg 2018-12-20 13:02 20K 
 13-02_circle.png 2018-12-20 13:02 2.5K 
 13-03_audimat.png 2018-12-20 13:02 9.2K 
 13-04_folks_tt.jpg 2018-12-20 13:02 13K 
 13-05_tondo.jpg 2018-12-20 13:02 20K 
 13-06_share.png 2018-12-20 13:02 2.5K 
 13-07_reznor_broken.png2018-12-20 13:02 2.2K 
 13-08_alte_haas.png 2018-12-20 13:02 7.3K 
 13-09_eurofurence.png 2018-12-20 13:02 3.6K 
 13-10_babel_sans.png 2018-12-20 13:02 2.9K 
 13-11_bedizen.png 2018-12-20 13:02 2.3K 
 13-12_birth_of_a_her..>2018-12-20 13:02 42K 
 13-13_everyday_ghost..>2018-12-20 13:02 21K 
 13-14_times_new_york..>2018-12-20 13:02 13K 
 13-15_grymmoire.jpg 2018-12-20 13:02 22K 
 13-16_district.png 2018-12-20 13:02 23K 
 13-17_ginga.jpg 2018-12-20 13:02 39K 
 13-18_sidewalk.png 2018-12-20 13:02 4.8K 
 13-19_trashco.png 2018-12-20 13:02 5.1K 
 13-20_dirty_and_Clas..>2018-12-20 13:02 34K 
 13-21_laundromat_196..>2018-12-20 13:02 4.7K 
 13-22_84_rock.jpg 2018-12-20 13:02 19K 
 13-23_americana_drea..>2018-12-20 13:02 2.3K 
 13-24_vintage.jpg 2018-12-20 13:02 23K 
 13-25_210_femotype.png 2018-12-20 13:02 2.8K 
 13-26_Automania.png 2018-12-20 13:02 6.1K 
 13-27_chick.png 2018-12-20 13:02 3.3K 
 13-29_deftone_stylus..>2018-12-20 13:02 8.6K 
 13-30_groove_machine..>2018-12-20 13:02 4.1K 
 13-31_metro-retro.png 2018-12-20 13:02 4.4K 
 13-32_registry.png 2018-12-20 13:02 3.0K 
 13-33_mexcellent.png 2018-12-20 13:02 4.0K 
 13-34_swingtime_mf.jpg 2018-12-20 13:02 31K 
 13-35_joe_hand_2.png 2018-12-20 13:02 2.3K 
 13-36_advent.jpg 2018-12-20 13:02 13K 
 13-37_sunday_morning..>2018-12-20 13:02 40K 
 13-38_rough_draft.png 2018-12-20 13:02 4.7K 
 13-39_burst_my_bubbl..>2018-12-20 13:02 9.2K 
 13-40_loved_by_the_k..>2018-12-20 13:02 12K 
 13-41_angelina.png 2018-12-20 13:02 10K 
 13-42_sebastian_font..>2018-12-20 13:02 11K 
 13-43_karabine.png 2019-01-21 12:52 74K 
 13-44_loveable_scruf..>2018-12-20 13:02 26K 
 13-45_ae_scrawl.png 2018-12-20 13:02 7.8K 
 13-46_edo.png 2018-12-20 13:02 2.8K 
 15-01_use_framework.png2018-12-20 13:02 19K 
 15-01_use_framework_..>2018-12-20 13:02 26K 
 15-02_use_ide.jpg 2018-12-20 13:02 30K 
 15-04_in-browser_too..>2018-12-20 13:02 5.4K 
 15-06_collaborate_on..>2018-12-20 13:02 15K 
 15-07_automate_stand..>2018-12-20 13:02 12K 
 15-09_use_written_sc..>2018-12-20 13:02 4.5K 
 16-01_leading.jpg 2018-12-20 13:02 47K 
 16-02_featured_area.jpg2018-12-20 13:02 41K 
 16-03_see_through.jpg 2018-12-20 13:02 43K 
 18-01_paper_texture.jpg2018-12-20 13:02 21K 
 18-02_grunge_website..>2018-12-20 13:02 27K 
 18-03_sleek_high-end..>2018-12-20 13:02 23K 
 18-04_band_template.jpg2018-12-20 13:02 13K 
 18-05_css_based_temp..>2018-12-20 13:02 29K 
 18-06_dark_themed_te..>2018-12-20 13:02 29K 
 18-07_watercolor_eff..>2018-12-20 13:02 21K 
 18-08_volkswagen_men..>2018-12-20 13:02 23K 
 18-09_carbon_fibre.jpg 2018-12-20 13:02 20K 
 18-10_css_navigation..>2018-12-20 13:02 14K 
 18-11_content_box_na..>2018-12-20 13:02 6.5K 
 18-12_search_bar.png 2018-12-20 13:02 5.3K 
 18-13_professional_d..>2018-12-20 13:02 8.4K 
 18-14_pro_header_w_n..>2018-12-20 13:02 20K 
 18-15_hero_header.jpg 2018-12-20 13:02 17K 
 18-16_header_backgro..>2018-12-20 13:02 17K 
 18-17_unique_header.jpg2018-12-20 13:02 15K 
 18-18_design_studio_..>2018-12-20 13:02 18K 
 18-19_professional_h..>2018-12-20 13:02 16K 
 18-20_latest_tweets.jpg2018-12-20 13:02 17K 
 18-21_light_tabbed_b..>2018-12-20 13:02 22K 
 18-22_dark_content_b..>2018-12-20 13:02 32K 
 18-23_green_fresh_co..>2018-12-20 13:02 16K 
 18-24_bookmark_box.jpg 2018-12-20 13:02 15K 
 18-25_grungy_banner.jpg2018-12-20 13:02 26K 
 20-01_viget_inspire.jpg2019-01-21 12:52 44K 
 20-02_web_design_led..>2019-01-21 12:52 59K 
 20-03_jason_santa_ma..>2019-01-21 12:52 37K 
 20-04_malene_hald.jpg 2019-01-21 12:52 49K 
 20-05_hyper_island.jpg 2019-01-21 12:52 31K 
 20-06_bart-jan.jpg 2019-01-21 12:52 48K 
 20-07_bearskin.jpg 2019-01-21 12:52 53K 
 20-08_mezz0blue.jpg 2019-01-21 12:52 38K 
 20-09_darling_blog.jpg 2019-01-21 12:52 54K 
 20-10_simple_bits.jpg 2019-01-21 12:52 23K 
 20-11_ian_cox.jpg 2019-01-21 12:52 27K 
 20-12_louva.jpg 2019-01-21 12:52 54K 
 20-13_boompa.jpg 2019-01-21 12:52 52K 
 20-14_qn5_blog.jpg 2019-01-21 12:52 37K 
 20-15_luis_alarcon.jpg 2019-01-21 12:52 46K 
 20-16_blog_what_desi..>2019-01-21 12:52 29K 
 20-17_sushi_robot.jpg 2019-01-21 12:52 31K 
 20-18_organic_superm..>2019-01-21 12:52 67K 
 20-19_31three.jpg 2019-01-21 12:52 32K 
 20-20_surfgarden.jpg 2019-01-21 12:52 44K 
 20-21_fubiz.jpg 2019-01-21 12:52 31K 
 20-22_the_indie_dude..>2019-01-21 12:52 70K 
 20-23_iseen_blog.jpg 2018-12-20 13:02 37K 
 20-24_eleven3.jpg 2019-01-21 12:52 58K 
 20-25_dollarshort.jpg 2019-01-21 12:52 39K 
 20-26_design_disease..>2019-01-21 12:52 36K 
 20-27_catalyst_studi..>2019-01-21 12:52 42K 
 20-28_hicksdesign.jpg 2019-01-21 12:52 38K 
 20-29_carsonified.jpg 2019-01-21 12:52 50K 
 20-30_web_designer_w..>2019-01-21 12:52 67K 
 20-31_electric_pulp.jpg2019-01-21 12:52 45K 
 20-32_boooom.jpg 2019-01-21 12:52 81K 
 20-33_veerles_blog.jpg 2019-01-21 12:52 39K 
 20-34_narfstuff.jpg 2019-01-21 12:52 52K 
 20-35_freelenz.jpg 2019-01-21 12:52 37K 
 20-36_iamfinch.jpg 2019-01-21 12:52 30K 
 20-37_kimberly_coles..>2019-01-21 12:52 48K 
 20-38_odds_ends.jpg 2019-01-21 12:52 39K 
 20-39_chris_welch.jpg 2018-12-20 13:02 48K 
 20-40_cognigen.jpg 2019-01-21 12:52 35K 
 22-01_firebug.jpg 2018-12-20 13:02 42K 
 22-01_firebug_v2.jpg 2018-12-20 13:02 42K 
 22-02_save_images_ri..>2018-12-20 13:02 24K 
 22-02_save_images_ri..>2019-01-21 12:52 48K 
 22-03_css_sprites_on..>2018-12-20 13:02 36K 
 22-03_css_sprites_on..>2018-12-20 13:02 16K 
 22-04_s3fox.jpg 2018-12-20 13:02 27K 
 22-05_cuzzillion.png 2018-12-20 13:02 2.6K 
 24-01_bcullo.jpg 2019-01-21 12:52 36K 
 24-02_edgepoint_chur..>2019-01-21 12:52 34K 
 24-03_blog_amuki.jpg 2019-01-21 12:52 45K 
 24-04_blog_spoon_gra..>2019-01-21 12:52 30K 
 24-05_web_designer_w..>2019-01-21 12:52 31K 
 24-06_css-tricks.jpg 2018-12-20 13:02 42K 
 24-07_simplebits.jpg 2018-12-20 13:02 38K 
 24-08_branded07.jpg 2018-12-20 13:02 45K 
 24-09_powazek.jpg 2019-01-21 12:52 28K 
 24-10_biola.jpg 2018-12-20 13:02 43K 
 24-11_we_not_freelan..>2018-12-20 13:02 42K 
 24-12_43_folders.jpg 2019-01-21 12:52 33K 
 24-13_dreamling.jpg 2019-01-21 12:52 33K 
 24-14_prblogger.jpg 2019-01-21 12:52 34K 
 24-15_dale_harris.jpg 2018-12-20 13:02 47K 
 24-16_yodiv.jpg 2018-12-20 13:02 44K 
 24-17_i_primi_dieci.jpg2019-01-21 12:52 40K 
 24-18_designer_devel..>2018-12-20 13:02 35K 
 24-19_jason_santa_ma..>2019-01-21 12:52 26K 
 24-20_bern.jpg 2018-12-20 13:02 38K 
 24-21_personal_babli..>2019-01-21 12:52 38K 
 24-22_samrayner.jpg 2019-01-21 12:52 31K 
 24-23_flyin_web.jpg 2019-01-21 12:52 35K 
 24-24_david_hellman.jpg2018-12-20 13:02 46K 
 24-25_voll.jpg 2019-01-21 12:52 31K 
 26-01_designing_for_..>2018-12-20 13:02 19K 
 26-02_create_wordpre..>2018-12-20 13:02 17K 
 26-03_install_wp_loc..>2018-12-20 13:02 11K 
 26-04_modify_wordpre..>2018-12-20 13:02 16K 
 26-05_twitter_field.jpg2018-12-20 13:02 18K 
 26-06_custom_header.jpg2018-12-20 13:02 17K 
 26-07_first_widget.jpg 2018-12-20 13:02 19K 
 26-08_create_plugin.jpg2018-12-20 13:02 12K 
 26-09_hodgepodge_of_..>2018-12-20 13:02 27K 
 26-10_wp_as_cms.jpg 2018-12-20 13:02 28K 
 26-11_permalinks.jpg 2018-12-20 13:02 15K 
 26-12_member_directo..>2018-12-20 13:02 25K 
 26-13_lost_password.png2018-12-20 13:02 9.5K 
 26-14_enable_https.jpg 2018-12-20 13:02 19K 
 26-15_upgrade_best_p..>2018-12-20 13:02 12K 
 26-16_move_wordpress..>2018-12-20 13:02 15K 
 26-17_export.jpg 2018-12-20 13:02 13K 
 26-18_admin_settings..>2018-12-20 13:02 21K 
 26-19_user_roles.jpg 2018-12-20 13:02 12K 
 26-20_wordpress_data..>2018-12-20 13:02 25K 
 26-21_google_sitemap..>2018-12-20 13:02 28K 
 26-22_getting_starte..>2018-12-20 13:02 7.1K 
 26-23_wordpress_inst..>2018-12-20 13:02 18K 
 26-24_upload_pdfs.jpg 2018-12-20 13:02 22K 
 26-25_photo_captions..>2018-12-20 13:02 26K 
 26-26_simple_page_ed..>2018-12-20 13:02 20K 
 26-27_picture_galler..>2018-12-20 13:02 18K 
 26-28_html_quicktag_..>2018-12-20 13:02 18K 
 26-29_windows_live_w..>2018-12-20 13:02 22K 
 26-30_scribefire.jpg 2018-12-20 13:02 13K 
 27-01_scribefire.png 2018-12-20 13:02 34K 
 27-02_wordpress_help..>2018-12-20 13:02 20K 
 27-03_screen_grab_fo..>2018-12-20 13:02 14K 
 27-04_security_scann..>2018-12-20 13:02 2.9K 
 27-05_broken_link_ch..>2018-12-20 13:02 20K 
 27-06_google_syntax_..>2018-12-20 13:02 25K 
 27-07_insights.png 2018-12-20 13:02 4.7K 
 27-08_windows_live_w..>2018-12-20 13:02 34K 
 27-09_revision_contr..>2018-12-20 13:02 6.0K 
 27-10_organize_serie..>2018-12-20 13:02 23K 
 27-11_wordpress_noti..>2018-12-20 13:02 17K 
 27-12_comment_ninja.png2018-12-20 13:02 7.4K 
 27-13_adserve.png 2018-12-20 13:02 13K 
 27-14_simple_tags.png 2018-12-20 13:02 6.7K 
 27-15_twitme.png 2018-12-20 13:02 5.1K 
 31-01_red_rocks_text..>2018-12-20 13:02 32K